Time,TemperatureF,DewpointF,PressureIn,WindDirection,WindDirectionDegrees,WindSpeedMPH,WindSpeedGustMPH,Humidity,HourlyPrecipIn,Conditions,Clouds,dailyrainin,SoftwareType,DateUTC
2013-07-31 00:00:00,61.0,-99.9,30.02,SE,143,0.0,0.0,-999,-99.99,,,-99.99,,2013-07-31 07:00:00,
2013-07-31 00:05:00,61.2,-99.9,30.02,SE,143,0.0,0.0,-999,-99.99,,,-99.99,,2013-07-31 07:05:00,
2013-07-31 00:10:00,60.9,-99.9,30.02,SE,143,0.0,0.0,-999,-99.99,,,-99.99,,2013-07-31 07:10:00,
2013-07-31 00:15:00,60.7,-99.9,30.02,SE,143,0.0,0.0,-999,-99.99,,,-99.99,,2013-07-31 07:15:00,
2013-07-31 00:20:00,60.4,-99.9,30.02,SE,143,0.0,0.0,-999,-99.99,,,-99.99,,2013-07-31 07:20:00,
2013-07-31 00:25:00,60.7,-99.9,30.02,SE,143,0.0,0.0,-999,-99.99,,,-99.99,,2013-07-31 07:25:00,
2013-07-31 00:30:00,60.1,-99.9,30.02,SE,143,0.0,11.6,-999,-99.99,,,-99.99,,2013-07-31 07:30:00,
2013-07-31 00:35:00,60.5,-99.9,30.02,SE,143,0.0,0.0,-999,-99.99,,,-99.99,,2013-07-31 07:35:00,
2013-07-31 00:40:00,60.3,-99.9,30.02,ENE,76,0.0,0.0,-999,-99.99,,,-99.99,,2013-07-31 07:40:00,
2013-07-31 00:45:00,60.5,-99.9,30.02,ENE,76,0.0,0.0,-999,-99.99,,,-99.99,,2013-07-31 07:45:00,
2013-07-31 00:50:00,60.1,-99.9,30.01,ENE,76,0.0,0.0,-999,-99.99,,,-99.99,,2013-07-31 07:50:00,
2013-07-31 00:55:00,60.3,-99.9,30.01,ENE,76,0.0,0.0,-999,-99.99,,,-99.99,,2013-07-31 07:55:00,
2013-07-31 01:00:00,59.8,-99.9,30.01,ENE,76,0.0,0.0,-999,-99.99,,,-99.99,,2013-07-31 08:00:00,
2013-07-31 01:05:00,59.9,-99.9,30.01,ENE,76,0.0,0.0,-999,-99.99,,,-99.99,,2013-07-31 08:05:00,
2013-07-31 01:10:00,60.0,-99.9,30.01,ENE,76,0.0,0.0,-999,-99.99,,,-99.99,,2013-07-31 08:10:00,
2013-07-31 01:15:00,59.7,-99.9,30.01,ENE,76,0.0,0.0,-999,-99.99,,,-99.99,,2013-07-31 08:15:00,
2013-07-31 01:20:00,59.7,-99.9,30.01,ENE,76,0.0,0.0,-999,-99.99,,,-99.99,,2013-07-31 08:20:00,
2013-07-31 01:25:00,59.6,-99.9,30.01,ENE,76,0.0,0.0,-999,-99.99,,,-99.99,,2013-07-31 08:25:00,
2013-07-31 01:30:00,59.5,-99.9,30.01,ENE,76,0.0,0.0,-999,-99.99,,,-99.99,,2013-07-31 08:30:00,
2013-07-31 01:35:00,59.5,-99.9,30.01,ENE,76,0.0,0.0,-999,-99.99,,,-99.99,,2013-07-31 08:35:00,
2013-07-31 01:40:00,59.3,-99.9,30.01,ENE,76,0.0,0.0,-999,-99.99,,,-99.99,,2013-07-31 08:40:00,
2013-07-31 01:45:00,59.2,-99.9,30.01,ENE,76,0.0,0.0,-999,-99.99,,,-99.99,,2013-07-31 08:45:00,
2013-07-31 01:50:00,59.3,-99.9,30.01,ENE,76,0.0,0.0,-999,-99.99,,,-99.99,,2013-07-31 08:50:00,
2013-07-31 01:55:00,59.3,-99.9,30.01,East,88,0.0,0.0,-999,-99.99,,,-99.99,,2013-07-31 08:55:00,
2013-07-31 02:00:00,59.3,-99.9,30.01,East,88,0.0,0.0,-999,-99.99,,,-99.99,,2013-07-31 09:00:00,
2013-07-31 02:05:00,59.4,-99.9,30.01,East,101,0.0,0.0,-999,-99.99,,,-99.99,,2013-07-31 09:05:00,
2013-07-31 02:10:00,59.3,-99.9,30.01,SE,131,0.0,0.0,-999,-99.99,,,-99.99,,2013-07-31 09:10:00,
2013-07-31 02:15:00,59.3,-99.9,30.01,SE,131,0.0,10.8,-999,-99.99,,,-99.99,,2013-07-31 09:15:00,
2013-07-31 02:20:00,59.1,-99.9,30.01,SE,131,0.0,0.0,-999,-99.99,,,-99.99,,2013-07-31 09:20:00,
2013-07-31 02:25:00,59.0,-99.9,30.00,SE,131,0.0,0.0,-999,-99.99,,,-99.99,,2013-07-31 09:25:00,
2013-07-31 02:30:00,58.9,-99.9,30.00,SE,131,0.0,0.0,-999,-99.99,,,-99.99,,2013-07-31 09:30:00,
2013-07-31 02:35:00,59.1,-99.9,30.00,SE,131,0.0,0.0,-999,-99.99,,,-99.99,,2013-07-31 09:35:00,
2013-07-31 02:40:00,58.9,-99.9,30.00,SE,131,0.0,0.0,-999,-99.99,,,-99.99,,2013-07-31 09:40:00,
2013-07-31 02:45:00,58.8,-99.9,30.00,SE,131,0.0,0.0,-999,-99.99,,,-99.99,,2013-07-31 09:45:00,
2013-07-31 02:50:00,58.5,-99.9,30.00,SE,131,0.0,0.0,-999,-99.99,,,-99.99,,2013-07-31 09:50:00,
2013-07-31 02:55:00,58.3,-99.9,30.00,SE,131,0.0,0.0,-999,-99.99,,,-99.99,,2013-07-31 09:55:00,
2013-07-31 03:00:00,58.2,-99.9,29.99,SE,131,0.0,0.0,-999,-99.99,,,-99.99,,2013-07-31 10:00:00,
2013-07-31 03:05:00,58.3,-99.9,29.99,SE,131,0.0,0.0,-999,-99.99,,,-99.99,,2013-07-31 10:05:00,
2013-07-31 03:10:00,58.3,-99.9,29.99,SE,131,0.0,0.0,-999,-99.99,,,-99.99,,2013-07-31 10:10:00,
2013-07-31 03:15:00,58.6,-99.9,29.99,SE,131,0.0,0.0,-999,-99.99,,,-99.99,,2013-07-31 10:15:00,
2013-07-31 03:20:00,58.6,-99.9,29.99,SE,131,0.0,0.0,-999,-99.99,,,-99.99,,2013-07-31 10:20:00,
2013-07-31 03:25:00,58.4,-99.9,29.99,SE,131,0.0,0.0,-999,-99.99,,,-99.99,,2013-07-31 10:25:00,
2013-07-31 03:30:00,58.4,-99.9,29.99,SE,131,0.0,0.0,-999,-99.99,,,-99.99,,2013-07-31 10:30:00,
2013-07-31 03:35:00,58.3,-99.9,29.99,SE,131,0.0,0.0,-999,-99.99,,,-99.99,,2013-07-31 10:35:00,
2013-07-31 03:40:00,58.3,-99.9,29.99,SE,131,0.0,0.0,-999,-99.99,,,-99.99,,2013-07-31 10:40:00,
2013-07-31 03:45:00,58.3,-99.9,29.99,SE,131,0.0,0.0,-999,-99.99,,,-99.99,,2013-07-31 10:45:00,
2013-07-31 03:50:00,58.2,-99.9,29.99,SE,131,0.0,0.0,-999,-99.99,,,-99.99,,2013-07-31 10:50:00,
2013-07-31 03:55:00,58.1,-99.9,29.99,SE,131,0.0,0.0,-999,-99.99,,,-99.99,,2013-07-31 10:55:00,
2013-07-31 04:00:00,58.1,-99.9,29.99,SE,131,0.0,0.0,-999,-99.99,,,-99.99,,2013-07-31 11:00:00,
2013-07-31 04:05:00,57.7,-99.9,29.99,WNW,299,0.0,0.0,-999,-99.99,,,-99.99,,2013-07-31 11:05:00,
2013-07-31 04:10:00,57.8,-99.9,29.99,East,101,0.0,0.0,-999,-99.99,,,-99.99,,2013-07-31 11:10:00,
2013-07-31 04:15:00,57.7,-99.9,29.99,East,101,0.0,0.0,-999,-99.99,,,-99.99,,2013-07-31 11:15:00,
2013-07-31 04:20:00,57.7,-99.9,29.99,East,101,0.0,0.0,-999,-99.99,,,-99.99,,2013-07-31 11:20:00,
2013-07-31 04:25:00,57.8,-99.9,29.99,SE,131,0.0,0.0,-999,-99.99,,,-99.99,,2013-07-31 11:25:00,
2013-07-31 04:30:00,57.7,-99.9,29.98,ESE,110,0.0,8.4,-999,-99.99,,,-99.99,,2013-07-31 11:30:00,
2013-07-31 04:35:00,57.7,-99.9,29.98,ESE,110,0.0,0.0,-999,-99.99,,,-99.99,,2013-07-31 11:35:00,
2013-07-31 04:40:00,57.6,-99.9,29.98,ESE,104,0.0,0.0,-999,-99.99,,,-99.99,,2013-07-31 11:40:00,
2013-07-31 04:45:00,57.4,-99.9,29.98,ESE,104,0.0,0.0,-999,-99.99,,,-99.99,,2013-07-31 11:45:00,
2013-07-31 04:50:00,57.7,-99.9,29.98,ESE,104,0.0,0.0,-999,-99.99,,,-99.99,,2013-07-31 11:50:00,
2013-07-31 04:55:00,57.7,-99.9,29.98,ESE,104,0.0,0.0,-999,-99.99,,,-99.99,,2013-07-31 11:55:00,
2013-07-31 05:00:00,57.6,-99.9,29.98,SSE,159,0.0,0.0,-999,-99.99,,,-99.99,,2013-07-31 12:00:00,
2013-07-31 05:05:00,57.4,-99.9,29.98,SSE,159,0.0,0.0,-999,-99.99,,,-99.99,,2013-07-31 12:05:00,
2013-07-31 05:10:00,57.3,-99.9,29.99,South,172,0.0,0.0,-999,-99.99,,,-99.99,,2013-07-31 12:10:00,
2013-07-31 05:15:00,57.3,-99.9,29.99,South,182,0.0,0.0,-999,-99.99,,,-99.99,,2013-07-31 12:15:00,
2013-07-31 05:20:00,57.2,-99.9,29.98,South,182,0.0,0.0,-999,-99.99,,,-99.99,,2013-07-31 12:20:00,
2013-07-31 05:25:00,57.4,-99.9,29.98,South,182,0.0,0.0,-999,-99.99,,,-99.99,,2013-07-31 12:25:00,
2013-07-31 05:30:00,57.6,-99.9,29.98,South,182,0.0,0.0,-999,-99.99,,,-99.99,,2013-07-31 12:30:00,
2013-07-31 05:35:00,57.4,-99.9,29.98,South,182,0.0,0.0,-999,-99.99,,,-99.99,,2013-07-31 12:35:00,
2013-07-31 05:40:00,57.3,-99.9,29.98,South,182,0.0,8.4,-999,-99.99,,,-99.99,,2013-07-31 12:40:00,
2013-07-31 05:45:00,57.3,-99.9,29.98,South,182,0.0,0.0,-999,-99.99,,,-99.99,,2013-07-31 12:45:00,
2013-07-31 05:50:00,57.3,-99.9,29.98,South,182,0.0,0.0,-999,-99.99,,,-99.99,,2013-07-31 12:50:00,
2013-07-31 05:55:00,57.3,-99.9,29.98,South,182,0.0,0.0,-999,-99.99,,,-99.99,,2013-07-31 12:55:00,
2013-07-31 06:00:00,57.2,-99.9,29.98,South,182,0.0,0.0,-999,-99.99,,,-99.99,,2013-07-31 13:00:00,
2013-07-31 06:10:00,57.0,-99.9,29.99,SW,221,0.0,0.0,-999,-99.99,,,-99.99,,2013-07-31 13:10:00,
2013-07-31 06:15:00,56.9,-99.9,29.99,SW,221,0.0,0.0,-999,-99.99,,,-99.99,,2013-07-31 13:15:00,
2013-07-31 06:20:00,57.0,-99.9,29.99,WSW,238,0.0,0.0,-999,-99.99,,,-99.99,,2013-07-31 13:20:00,
2013-07-31 06:25:00,57.0,-99.9,29.99,WSW,238,0.0,12.1,-999,-99.99,,,-99.99,,2013-07-31 13:25:00,
2013-07-31 06:30:00,57.0,-99.9,29.99,WSW,238,0.0,0.0,-999,-99.99,,,-99.99,,2013-07-31 13:30:00,
2013-07-31 06:35:00,57.1,-99.9,29.99,WSW,238,0.0,0.0,-999,-99.99,,,-99.99,,2013-07-31 13:35:00,
2013-07-31 06:40:00,56.9,-99.9,29.99,WSW,238,0.0,0.0,-999,-99.99,,,-99.99,,2013-07-31 13:40:00,
2013-07-31 06:45:00,57.0,-99.9,29.99,WSW,238,0.0,0.0,-999,-99.99,,,-99.99,,2013-07-31 13:45:00,
2013-07-31 06:50:00,56.9,-99.9,29.99,WSW,238,0.0,0.0,-999,-99.99,,,-99.99,,2013-07-31 13:50:00,
2013-07-31 06:55:00,57.0,-99.9,29.99,WSW,238,0.0,0.0,-999,-99.99,,,-99.99,,2013-07-31 13:55:00,
2013-07-31 07:00:00,57.1,-99.9,29.99,WSW,238,0.0,0.0,-999,-99.99,,,-99.99,,2013-07-31 14:00:00,
2013-07-31 07:05:00,57.2,-99.9,29.99,WSW,238,0.0,0.0,-999,-99.99,,,-99.99,,2013-07-31 14:05:00,
2013-07-31 07:10:00,57.3,-99.9,29.99,WSW,238,0.0,0.0,-999,-99.99,,,-99.99,,2013-07-31 14:10:00,
2013-07-31 07:15:00,57.3,-99.9,29.99,WSW,238,0.0,0.0,-999,-99.99,,,-99.99,,2013-07-31 14:15:00,
2013-07-31 07:20:00,57.0,-99.9,30.00,SW,220,0.0,12.1,-999,-99.99,,,-99.99,,2013-07-31 14:20:00,
2013-07-31 07:25:00,56.9,-99.9,30.00,SW,220,0.0,0.0,-999,-99.99,,,-99.99,,2013-07-31 14:25:00,
2013-07-31 07:30:00,56.9,-99.9,30.00,SW,220,0.0,0.0,-999,-99.99,,,-99.99,,2013-07-31 14:30:00,
2013-07-31 07:35:00,57.2,-99.9,30.00,SW,220,0.0,0.0,-999,-99.99,,,-99.99,,2013-07-31 14:35:00,
2013-07-31 07:40:00,57.0,-99.9,30.00,SW,220,0.0,0.0,-999,-99.99,,,-99.99,,2013-07-31 14:40:00,
2013-07-31 07:45:00,57.2,-99.9,30.00,SW,220,0.0,0.0,-999,-99.99,,,-99.99,,2013-07-31 14:45:00,
2013-07-31 07:50:00,57.3,-99.9,29.99,SW,220,0.0,0.0,-999,-99.99,,,-99.99,,2013-07-31 14:50:00,
2013-07-31 07:55:00,57.3,-99.9,30.00,SW,220,0.0,0.0,-999,-99.99,,,-99.99,,2013-07-31 14:55:00,
2013-07-31 08:00:00,57.4,-99.9,30.00,SW,220,0.0,0.0,-999,-99.99,,,-99.99,,2013-07-31 15:00:00,
2013-07-31 08:05:00,57.3,-99.9,30.01,SW,220,0.0,0.0,-999,-99.99,,,-99.99,,2013-07-31 15:05:00,
2013-07-31 08:10:00,57.4,-99.9,30.01,SW,220,0.0,9.0,-999,-99.99,,,-99.99,,2013-07-31 15:10:00,
2013-07-31 08:15:00,57.6,-99.9,30.01,ESE,112,0.0,0.0,-999,-99.99,,,-99.99,,2013-07-31 15:15:00,
2013-07-31 08:20:00,57.8,-99.9,30.01,ESE,112,0.0,0.0,-999,-99.99,,,-99.99,,2013-07-31 15:20:00,
2013-07-31 08:30:00,57.8,-99.9,30.01,ESE,112,0.0,0.0,-999,-99.99,,,-99.99,,2013-07-31 15:30:00,
2013-07-31 08:35:00,58.0,-99.9,30.01,ESE,112,0.0,0.0,-999,-99.99,,,-99.99,,2013-07-31 15:35:00,
2013-07-31 08:40:00,58.0,-99.9,30.01,ESE,112,0.0,0.0,-999,-99.99,,,-99.99,,2013-07-31 15:40:00,
2013-07-31 08:45:00,58.1,-99.9,30.01,ESE,112,0.0,0.0,-999,-99.99,,,-99.99,,2013-07-31 15:45:00,
2013-07-31 08:50:00,58.4,-99.9,30.01,ESE,112,0.0,0.0,-999,-99.99,,,-99.99,,2013-07-31 15:50:00,
2013-07-31 08:55:00,58.5,-99.9,30.01,ESE,112,0.0,0.0,-999,-99.99,,,-99.99,,2013-07-31 15:55:00,
2013-07-31 09:00:00,58.7,-99.9,30.02,ESE,112,0.0,0.0,-999,-99.99,,,-99.99,,2013-07-31 16:00:00,
2013-07-31 09:05:00,58.8,-99.9,30.02,ESE,112,0.0,0.0,-999,-99.99,,,-99.99,,2013-07-31 16:05:00,
2013-07-31 09:10:00,58.9,-99.9,30.02,ESE,112,0.0,0.0,-999,-99.99,,,-99.99,,2013-07-31 16:10:00,
2013-07-31 09:20:00,59.1,-99.9,30.02,East,91,0.0,8.5,-999,-99.99,,,-99.99,,2013-07-31 16:20:00,
2013-07-31 09:25:00,59.3,-99.9,30.02,East,90,0.0,10.8,-999,-99.99,,,-99.99,,2013-07-31 16:25:00,
2013-07-31 09:30:00,59.4,-99.9,30.02,East,90,0.0,0.0,-999,-99.99,,,-99.99,,2013-07-31 16:30:00,
2013-07-31 09:35:00,59.4,-99.9,30.02,East,90,0.0,0.0,-999,-99.99,,,-99.99,,2013-07-31 16:35:00,
2013-07-31 09:40:00,59.5,-99.9,30.02,East,90,0.0,0.0,-999,-99.99,,,-99.99,,2013-07-31 16:40:00,
2013-07-31 09:45:00,59.6,-99.9,30.02,East,90,0.0,0.0,-999,-99.99,,,-99.99,,2013-07-31 16:45:00,
2013-07-31 09:50:00,59.8,-99.9,30.03,East,87,8.2,11.9,-999,-99.99,,,-99.99,,2013-07-31 16:50:00,
2013-07-31 09:55:00,60.0,-99.9,30.03,East,87,0.0,0.0,-999,-99.99,,,-99.99,,2013-07-31 16:55:00,
2013-07-31 10:00:00,60.1,-99.9,30.03,East,87,0.0,0.0,-999,-99.99,,,-99.99,,2013-07-31 17:00:00,
2013-07-31 10:05:00,60.1,-99.9,30.03,East,87,0.0,0.0,-999,-99.99,,,-99.99,,2013-07-31 17:05:00,
2013-07-31 10:10:00,60.4,-99.9,30.03,ESE,121,0.0,10.6,-999,-99.99,,,-99.99,,2013-07-31 17:10:00,
2013-07-31 10:15:00,60.5,-99.9,30.03,SE,139,0.0,0.0,-999,-99.99,,,-99.99,,2013-07-31 17:15:00,
2013-07-31 10:20:00,60.5,-99.9,30.03,WSW,239,0.0,7.1,-999,-99.99,,,-99.99,,2013-07-31 17:20:00,
2013-07-31 10:25:00,60.5,-99.9,30.03,SSE,151,0.0,7.9,-999,-99.99,,,-99.99,,2013-07-31 17:25:00,
2013-07-31 10:30:00,60.7,-99.9,30.03,SW,232,0.0,11.9,-999,-99.99,,,-99.99,,2013-07-31 17:30:00,
2013-07-31 10:40:00,60.9,-99.9,30.03,WSW,242,0.0,0.0,-999,-99.99,,,-99.99,,2013-07-31 17:40:00,
2013-07-31 10:45:00,61.0,-99.9,30.03,WSW,242,0.0,0.0,-999,-99.99,,,-99.99,,2013-07-31 17:45:00,
2013-07-31 10:50:00,61.1,-99.9,30.03,WSW,242,0.0,0.0,-999,-99.99,,,-99.99,,2013-07-31 17:50:00,
2013-07-31 10:55:00,61.3,-99.9,30.03,SE,143,0.0,0.0,-999,-99.99,,,-99.99,,2013-07-31 17:55:00,
2013-07-31 11:00:00,61.3,-99.9,30.03,SE,143,0.0,0.0,-999,-99.99,,,-99.99,,2013-07-31 18:00:00,
2013-07-31 11:05:00,61.4,-99.9,30.03,SE,143,6.9,8.5,-999,-99.99,,,-99.99,,2013-07-31 18:05:00,
2013-07-31 11:10:00,61.5,-99.9,30.03,SE,143,0.0,0.0,-999,-99.99,,,-99.99,,2013-07-31 18:10:00,
2013-07-31 11:15:00,61.7,-99.9,30.03,SE,143,0.0,0.0,-999,-99.99,,,-99.99,,2013-07-31 18:15:00,
2013-07-31 11:20:00,61.8,-99.9,30.03,SE,143,0.0,0.0,-999,-99.99,,,-99.99,,2013-07-31 18:20:00,
2013-07-31 11:25:00,61.9,-99.9,30.03,SE,143,0.0,0.0,-999,-99.99,,,-99.99,,2013-07-31 18:25:00,
2013-07-31 11:30:00,62.0,-99.9,30.03,SE,143,0.0,0.0,-999,-99.99,,,-99.99,,2013-07-31 18:30:00,
2013-07-31 11:35:00,62.1,-99.9,30.03,SE,143,0.0,0.0,-999,-99.99,,,-99.99,,2013-07-31 18:35:00,
2013-07-31 11:40:00,62.5,-99.9,30.03,South,191,0.0,0.0,-999,-99.99,,,-99.99,,2013-07-31 18:40:00,
2013-07-31 11:45:00,62.5,-99.9,30.03,South,191,0.0,0.0,-999,-99.99,,,-99.99,,2013-07-31 18:45:00,
2013-07-31 11:50:00,62.5,-99.9,30.03,South,191,0.0,6.9,-999,-99.99,,,-99.99,,2013-07-31 18:50:00,
2013-07-31 11:55:00,63.1,-99.9,30.03,South,191,0.0,0.0,-999,-99.99,,,-99.99,,2013-07-31 18:55:00,
2013-07-31 12:00:00,63.0,-99.9,30.03,South,189,0.0,8.2,-999,-99.99,,,-99.99,,2013-07-31 19:00:00,
2013-07-31 12:05:00,63.0,-99.9,30.03,South,189,0.0,0.0,-999,-99.99,,,-99.99,,2013-07-31 19:05:00,
2013-07-31 12:10:00,63.2,-99.9,30.03,South,189,0.0,0.0,-999,-99.99,,,-99.99,,2013-07-31 19:10:00,
2013-07-31 12:15:00,63.2,-99.9,30.02,SSW,210,0.0,0.0,-999,-99.99,,,-99.99,,2013-07-31 19:15:00,
2013-07-31 12:20:00,63.5,-99.9,30.02,SE,142,0.0,3.5,-999,-99.99,,,-99.99,,2013-07-31 19:20:00,
2013-07-31 12:25:00,63.6,-99.9,30.02,SE,142,0.0,6.6,-999,-99.99,,,-99.99,,2013-07-31 19:25:00,
2013-07-31 12:30:00,63.7,-99.9,30.02,SW,214,0.0,7.1,-999,-99.99,,,-99.99,,2013-07-31 19:30:00,
2013-07-31 12:35:00,63.9,-99.9,30.02,SE,136,0.0,0.0,-999,-99.99,,,-99.99,,2013-07-31 19:35:00,
2013-07-31 12:40:00,64.1,-99.9,30.02,SW,223,0.0,8.4,-999,-99.99,,,-99.99,,2013-07-31 19:40:00,
2013-07-31 12:45:00,64.3,-99.9,30.02,SW,223,0.0,0.0,-999,-99.99,,,-99.99,,2013-07-31 19:45:00,
2013-07-31 12:50:00,64.4,-99.9,30.01,SSE,166,0.0,5.1,-999,-99.99,,,-99.99,,2013-07-31 19:50:00,
2013-07-31 12:55:00,64.3,-99.9,30.02,SSE,162,0.0,0.0,-999,-99.99,,,-99.99,,2013-07-31 19:55:00,
2013-07-31 13:00:00,64.6,-99.9,30.02,SSE,162,0.0,8.2,-999,-99.99,,,-99.99,,2013-07-31 20:00:00,
2013-07-31 13:05:00,64.7,-99.9,30.01,ESE,114,0.0,0.0,-999,-99.99,,,-99.99,,2013-07-31 20:05:00,
2013-07-31 13:10:00,64.9,-99.9,30.02,ESE,114,0.0,0.0,-999,-99.99,,,-99.99,,2013-07-31 20:10:00,
2013-07-31 13:15:00,65.1,-99.9,30.01,SSE,162,0.0,5.1,-999,-99.99,,,-99.99,,2013-07-31 20:15:00,
2013-07-31 13:20:00,65.3,-99.9,30.01,SSE,162,0.0,0.0,-999,-99.99,,,-99.99,,2013-07-31 20:20:00,
2013-07-31 13:25:00,65.3,-99.9,30.01,ESE,112,0.0,4.5,-999,-99.99,,,-99.99,,2013-07-31 20:25:00,
2013-07-31 13:30:00,65.4,-99.9,30.01,ESE,112,0.0,0.0,-999,-99.99,,,-99.99,,2013-07-31 20:30:00,
2013-07-31 13:40:00,65.8,-99.9,30.01,ESE,112,0.0,0.0,-999,-99.99,,,-99.99,,2013-07-31 20:40:00,
2013-07-31 13:45:00,66.0,-99.9,30.01,SW,228,0.0,0.0,-999,-99.99,,,-99.99,,2013-07-31 20:45:00,
2013-07-31 13:50:00,66.1,-99.9,30.01,SW,228,0.0,0.0,-999,-99.99,,,-99.99,,2013-07-31 20:50:00,
2013-07-31 13:55:00,66.3,-99.9,30.01,SW,228,0.0,0.0,-999,-99.99,,,-99.99,,2013-07-31 20:55:00,
2013-07-31 14:00:00,66.6,-99.9,30.01,SW,228,0.0,0.0,-999,-99.99,,,-99.99,,2013-07-31 21:00:00,
2013-07-31 14:05:00,67.1,-99.9,30.01,SSW,204,0.0,13.8,-999,-99.99,,,-99.99,,2013-07-31 21:05:00,
2013-07-31 14:10:00,67.1,-99.9,30.01,WSW,244,0.0,0.0,-999,-99.99,,,-99.99,,2013-07-31 21:10:00,
2013-07-31 14:15:00,67.2,-99.9,30.01,WSW,244,0.0,0.0,-999,-99.99,,,-99.99,,2013-07-31 21:15:00,
2013-07-31 14:20:00,67.2,-99.9,30.01,WSW,244,0.0,0.0,-999,-99.99,,,-99.99,,2013-07-31 21:20:00,
2013-07-31 14:25:00,67.0,-99.9,30.01,WSW,244,0.0,7.6,-999,-99.99,,,-99.99,,2013-07-31 21:25:00,
2013-07-31 14:30:00,67.2,-99.9,30.01,ESE,114,0.0,11.1,-999,-99.99,,,-99.99,,2013-07-31 21:30:00,
2013-07-31 14:35:00,67.5,-99.9,30.01,ESE,114,0.0,0.0,-999,-99.99,,,-99.99,,2013-07-31 21:35:00,
2013-07-31 14:40:00,67.8,-99.9,30.00,ESE,114,0.0,0.0,-999,-99.99,,,-99.99,,2013-07-31 21:40:00,
2013-07-31 14:45:00,68.0,-99.9,30.01,ESE,114,0.0,0.0,-999,-99.99,,,-99.99,,2013-07-31 21:45:00,
2013-07-31 14:50:00,68.3,-99.9,30.00,SE,142,0.0,10.9,-999,-99.99,,,-99.99,,2013-07-31 21:50:00,
2013-07-31 14:55:00,68.4,-99.9,30.00,ESE,111,0.0,0.0,-999,-99.99,,,-99.99,,2013-07-31 21:55:00,
2013-07-31 15:00:00,68.5,-99.9,30.00,ESE,111,0.0,0.0,-999,-99.99,,,-99.99,,2013-07-31 22:00:00,
2013-07-31 15:05:00,68.8,-99.9,30.00,SSE,159,0.0,8.2,-999,-99.99,,,-99.99,,2013-07-31 22:05:00,
2013-07-31 15:10:00,68.8,-99.9,30.00,SSE,159,0.0,0.0,-999,-99.99,,,-99.99,,2013-07-31 22:10:00,
2013-07-31 15:15:00,69.0,-99.9,30.00,SSE,159,0.0,0.0,-999,-99.99,,,-99.99,,2013-07-31 22:15:00,
2013-07-31 15:20:00,69.3,-99.9,29.99,SSE,159,0.0,0.0,-999,-99.99,,,-99.99,,2013-07-31 22:20:00,
2013-07-31 15:25:00,69.4,-99.9,29.99,SSE,159,0.0,0.0,-999,-99.99,,,-99.99,,2013-07-31 22:25:00,
2013-07-31 15:30:00,69.8,-99.9,29.99,SE,125,0.0,0.0,-999,-99.99,,,-99.99,,2013-07-31 22:30:00,
2013-07-31 15:35:00,69.9,-99.9,29.99,South,187,0.0,0.0,-999,-99.99,,,-99.99,,2013-07-31 22:35:00,
2013-07-31 15:45:00,69.9,-99.9,30.00,WSW,256,0.0,0.0,-999,-99.99,,,-99.99,,2013-07-31 22:45:00,
2013-07-31 15:50:00,69.9,-99.9,29.99,WSW,252,0.0,0.0,-999,-99.99,,,-99.99,,2013-07-31 22:50:00,
2013-07-31 15:55:00,70.3,-99.9,29.99,WSW,252,0.0,0.0,-999,-99.99,,,-99.99,,2013-07-31 22:55:00,
2013-07-31 16:00:00,70.4,-99.9,29.99,WSW,252,0.0,0.0,-999,-99.99,,,-99.99,,2013-07-31 23:00:00,
2013-07-31 16:05:00,70.7,-99.9,29.99,NW,317,0.0,0.0,-999,-99.99,,,-99.99,,2013-07-31 23:05:00,
2013-07-31 16:10:00,71.0,-99.9,29.99,NW,317,0.0,0.0,-999,-99.99,,,-99.99,,2013-07-31 23:10:00,
2013-07-31 16:15:00,70.8,-99.9,29.99,South,183,0.0,0.0,-999,-99.99,,,-99.99,,2013-07-31 23:15:00,
2013-07-31 16:20:00,70.9,-99.9,29.99,East,88,0.0,8.7,-999,-99.99,,,-99.99,,2013-07-31 23:20:00,
2013-07-31 16:25:00,70.9,-99.9,29.99,West,263,0.0,0.0,-999,-99.99,,,-99.99,,2013-07-31 23:25:00,
2013-07-31 16:30:00,71.1,-99.9,29.99,West,263,0.0,0.0,-999,-99.99,,,-99.99,,2013-07-31 23:30:00,
2013-07-31 16:35:00,71.2,-99.9,29.99,West,275,0.0,0.0,-999,-99.99,,,-99.99,,2013-07-31 23:35:00,
2013-07-31 16:40:00,71.2,-99.9,29.99,NW,316,0.0,0.0,-999,-99.99,,,-99.99,,2013-07-31 23:40:00,
2013-07-31 16:45:00,71.2,-99.9,29.99,NW,316,0.0,0.0,-999,-99.99,,,-99.99,,2013-07-31 23:45:00,
2013-07-31 16:50:00,71.5,-99.9,29.99,WSW,239,0.0,13.7,-999,-99.99,,,-99.99,,2013-07-31 23:50:00,
2013-07-31 16:55:00,71.6,-99.9,29.99,SSW,194,0.0,3.7,-999,-99.99,,,-99.99,,2013-07-31 23:55:00,
2013-07-31 17:00:00,71.5,-99.9,29.99,SSE,160,0.0,0.0,-999,-99.99,,,-99.99,,2013-08-01 00:00:00,
2013-07-31 17:05:00,71.6,-99.9,29.99,SSE,160,0.0,8.7,-999,-99.99,,,-99.99,,2013-08-01 00:05:00,
2013-07-31 17:10:00,71.5,-99.9,29.99,SW,234,0.0,12.1,-999,-99.99,,,-99.99,,2013-08-01 00:10:00,
2013-07-31 17:15:00,71.4,-99.9,29.99,SW,234,0.0,0.0,-999,-99.99,,,-99.99,,2013-08-01 00:15:00,
2013-07-31 17:20:00,71.5,-99.9,29.99,SW,231,13.0,13.5,-999,-99.99,,,-99.99,,2013-08-01 00:20:00,
2013-07-31 17:25:00,71.4,-99.9,29.99,ESE,104,0.0,0.0,-999,-99.99,,,-99.99,,2013-08-01 00:25:00,
2013-07-31 17:30:00,71.2,-99.9,29.99,West,271,0.0,0.0,-999,-99.99,,,-99.99,,2013-08-01 00:30:00,
2013-07-31 17:35:00,71.3,-99.9,29.98,SSE,163,10.9,10.9,-999,-99.99,,,-99.99,,2013-08-01 00:35:00,
2013-07-31 17:40:00,71.5,-99.9,29.98,SE,131,0.0,0.0,-999,-99.99,,,-99.99,,2013-08-01 00:40:00,
2013-07-31 17:45:00,71.6,-99.9,29.98,ESE,111,7.9,10.8,-999,-99.99,,,-99.99,,2013-08-01 00:45:00,
2013-07-31 17:50:00,71.5,-99.9,29.98,ESE,111,0.0,0.0,-999,-99.99,,,-99.99,,2013-08-01 00:50:00,
2013-07-31 17:55:00,71.6,-99.9,29.98,SE,128,0.0,0.0,-999,-99.99,,,-99.99,,2013-08-01 00:55:00,
2013-07-31 18:00:00,71.5,-99.9,29.98,ESE,103,10.8,12.4,-999,-99.99,,,-99.99,,2013-08-01 01:00:00,
2013-07-31 18:05:00,71.6,-99.9,29.98,ESE,105,0.0,0.0,-999,-99.99,,,-99.99,,2013-08-01 01:05:00,
2013-07-31 18:10:00,71.5,-99.9,29.98,SE,127,0.0,0.0,-999,-99.99,,,-99.99,,2013-08-01 01:10:00,
2013-07-31 18:20:00,71.4,-99.9,29.98,ESE,115,0.0,0.0,-999,-99.99,,,-99.99,,2013-08-01 01:20:00,
2013-07-31 18:30:00,71.6,-99.9,29.98,ESE,121,7.9,8.5,-999,-99.99,,,-99.99,,2013-08-01 01:30:00,
2013-07-31 18:40:00,71.3,-99.9,29.98,SE,138,0.0,8.2,-999,-99.99,,,-99.99,,2013-08-01 01:40:00,
2013-07-31 18:45:00,71.5,-99.9,29.98,East,95,0.0,0.0,-999,-99.99,,,-99.99,,2013-08-01 01:45:00,
2013-07-31 18:50:00,71.8,-99.9,29.98,East,95,0.0,0.0,-999,-99.99,,,-99.99,,2013-08-01 01:50:00,
2013-07-31 18:55:00,71.7,-99.9,29.98,East,95,0.0,0.0,-999,-99.99,,,-99.99,,2013-08-01 01:55:00,
2013-07-31 19:00:00,71.7,-99.9,29.98,East,95,0.0,0.0,-999,-99.99,,,-99.99,,2013-08-01 02:00:00,
2013-07-31 19:05:00,71.6,-99.9,29.98,SW,223,0.0,7.2,-999,-99.99,,,-99.99,,2013-08-01 02:05:00,
2013-07-31 19:10:00,71.1,-99.9,29.98,SSW,208,0.0,16.4,-999,-99.99,,,-99.99,,2013-08-01 02:10:00,
2013-07-31 19:15:00,70.9,-99.9,29.98,SE,136,8.0,13.0,-999,-99.99,,,-99.99,,2013-08-01 02:15:00,
2013-07-31 19:20:00,70.5,-99.9,29.98,West,262,0.0,0.0,-999,-99.99,,,-99.99,,2013-08-01 02:20:00,
2013-07-31 19:25:00,70.6,-99.9,29.99,ENE,77,0.0,10.8,-999,-99.99,,,-99.99,,2013-08-01 02:25:00,
2013-07-31 19:30:00,70.1,-99.9,29.98,ESE,108,7.9,23.5,-999,-99.99,,,-99.99,,2013-08-01 02:30:00,
2013-07-31 19:35:00,70.1,-99.9,29.98,ESE,119,0.0,18.3,-999,-99.99,,,-99.99,,2013-08-01 02:35:00,
2013-07-31 19:40:00,69.8,-99.9,29.98,SE,125,0.0,12.2,-999,-99.99,,,-99.99,,2013-08-01 02:40:00,
2013-07-31 19:45:00,69.9,-99.9,29.98,SSE,151,0.0,0.0,-999,-99.99,,,-99.99,,2013-08-01 02:45:00,
2013-07-31 19:50:00,69.7,-99.9,29.98,South,183,0.0,9.0,-999,-99.99,,,-99.99,,2013-08-01 02:50:00,
2013-07-31 19:55:00,69.6,-99.9,29.98,South,183,0.0,13.5,-999,-99.99,,,-99.99,,2013-08-01 02:55:00,
2013-07-31 20:00:00,69.2,-99.9,29.98,SSE,165,0.0,0.0,-999,-99.99,,,-99.99,,2013-08-01 03:00:00,
2013-07-31 20:05:00,69.2,-99.9,29.98,ESE,118,0.0,6.8,-999,-99.99,,,-99.99,,2013-08-01 03:05:00,
2013-07-31 20:10:00,68.9,-99.9,29.98,East,91,0.0,0.0,-999,-99.99,,,-99.99,,2013-08-01 03:10:00,
2013-07-31 20:15:00,68.7,-99.9,29.98,SE,128,0.0,20.4,-999,-99.99,,,-99.99,,2013-08-01 03:15:00,
2013-07-31 20:20:00,68.3,-99.9,29.98,ESE,118,18.5,18.7,-999,-99.99,,,-99.99,,2013-08-01 03:20:00,
2013-07-31 20:25:00,68.1,-99.9,29.98,SE,125,9.0,9.0,-999,-99.99,,,-99.99,,2013-08-01 03:25:00,
2013-07-31 20:30:00,67.4,-99.9,29.98,SE,131,11.6,20.3,-999,-99.99,,,-99.99,,2013-08-01 03:30:00,
2013-07-31 20:35:00,67.2,-99.9,29.98,SE,124,0.0,16.1,-999,-99.99,,,-99.99,,2013-08-01 03:35:00,
2013-07-31 20:40:00,67.1,-99.9,29.98,ESE,121,19.3,22.0,-999,-99.99,,,-99.99,,2013-08-01 03:40:00,
2013-07-31 20:45:00,66.7,-99.9,29.98,SE,129,14.6,20.0,-999,-99.99,,,-99.99,,2013-08-01 03:45:00,
2013-07-31 20:50:00,66.4,-99.9,29.98,East,97,11.9,26.1,-999,-99.99,,,-99.99,,2013-08-01 03:50:00,
2013-07-31 20:55:00,66.2,-99.9,29.98,ESE,117,16.6,26.6,-999,-99.99,,,-99.99,,2013-08-01 03:55:00,
2013-07-31 21:00:00,65.6,-99.9,29.97,SE,127,20.6,26.1,-999,-99.99,,,-99.99,,2013-08-01 04:00:00,
2013-07-31 21:05:00,64.8,-99.9,29.97,SE,134,0.0,17.2,-999,-99.99,,,-99.99,,2013-08-01 04:05:00,
2013-07-31 21:10:00,65.2,-99.9,29.97,SE,141,18.2,22.7,-999,-99.99,,,-99.99,,2013-08-01 04:10:00,
2013-07-31 21:15:00,65.3,-99.9,29.97,SSE,148,0.0,11.6,-999,-99.99,,,-99.99,,2013-08-01 04:15:00,
2013-07-31 21:20:00,65.5,-99.9,29.97,ESE,114,0.0,8.4,-999,-99.99,,,-99.99,,2013-08-01 04:20:00,
2013-07-31 21:25:00,65.3,-99.9,29.97,SE,146,0.0,8.5,-999,-99.99,,,-99.99,,2013-08-01 04:25:00,
2013-07-31 21:30:00,65.2,-99.9,29.97,ESE,119,7.7,11.1,-999,-99.99,,,-99.99,,2013-08-01 04:30:00,
2013-07-31 21:35:00,65.2,-99.9,29.97,East,90,4.7,17.2,-999,-99.99,,,-99.99,,2013-08-01 04:35:00,
2013-07-31 21:40:00,65.0,-99.9,29.98,SE,141,12.2,12.9,-999,-99.99,,,-99.99,,2013-08-01 04:40:00,
2013-07-31 21:45:00,65.0,-99.9,29.98,SE,129,0.0,0.0,-999,-99.99,,,-99.99,,2013-08-01 04:45:00,
2013-07-31 21:50:00,64.8,-99.9,29.98,East,94,12.1,20.9,-999,-99.99,,,-99.99,,2013-08-01 04:50:00,
2013-07-31 21:55:00,64.5,-99.9,29.98,ESE,105,6.3,24.5,-999,-99.99,,,-99.99,,2013-08-01 04:55:00,
2013-07-31 22:00:00,64.2,-99.9,29.97,ESE,104,8.5,19.5,-999,-99.99,,,-99.99,,2013-08-01 05:00:00,
2013-07-31 22:05:00,63.9,-99.9,29.98,East,83,0.0,0.0,-999,-99.99,,,-99.99,,2013-08-01 05:05:00,
2013-07-31 22:10:00,63.9,-99.9,29.98,East,97,8.4,19.6,-999,-99.99,,,-99.99,,2013-08-01 05:10:00,
2013-07-31 22:15:00,63.8,-99.9,29.98,East,90,12.7,12.7,-999,-99.99,,,-99.99,,2013-08-01 05:15:00,
2013-07-31 22:20:00,63.3,-99.9,29.98,East,86,0.0,8.9,-999,-99.99,,,-99.99,,2013-08-01 05:20:00,
2013-07-31 22:25:00,63.2,-99.9,29.98,ESE,110,14.3,17.5,-999,-99.99,,,-99.99,,2013-08-01 05:25:00,
2013-07-31 22:30:00,63.4,-99.9,29.98,ENE,62,7.9,19.2,-999,-99.99,,,-99.99,,2013-08-01 05:30:00,
2013-07-31 22:35:00,63.3,-99.9,29.98,East,87,11.6,16.3,-999,-99.99,,,-99.99,,2013-08-01 05:35:00,
2013-07-31 22:40:00,62.9,-99.9,29.98,ESE,111,11.7,18.5,-999,-99.99,,,-99.99,,2013-08-01 05:40:00,
2013-07-31 22:45:00,62.7,-99.9,29.98,East,83,0.0,18.2,-999,-99.99,,,-99.99,,2013-08-01 05:45:00,
2013-07-31 22:50:00,62.5,-99.9,29.98,ENE,63,8.7,15.6,-999,-99.99,,,-99.99,,2013-08-01 05:50:00,
2013-07-31 22:55:00,62.5,-99.9,29.98,NE,43,9.0,16.7,-999,-99.99,,,-99.99,,2013-08-01 05:55:00,
2013-07-31 23:00:00,62.3,-99.9,29.98,SSE,155,20.6,24.1,-999,-99.99,,,-99.99,,2013-08-01 06:00:00,
2013-07-31 23:05:00,62.3,-99.9,29.97,SE,128,0.0,16.3,-999,-99.99,,,-99.99,,2013-08-01 06:05:00,
2013-07-31 23:10:00,62.4,-99.9,29.97,ESE,110,0.0,15.9,-999,-99.99,,,-99.99,,2013-08-01 06:10:00,
2013-07-31 23:15:00,62.1,-99.9,29.97,East,101,8.9,23.0,-999,-99.99,,,-99.99,,2013-08-01 06:15:00,
2013-07-31 23:20:00,61.8,-99.9,29.97,ESE,117,9.0,17.2,-999,-99.99,,,-99.99,,2013-08-01 06:20:00,
2013-07-31 23:25:00,61.9,-99.9,29.97,ESE,114,8.2,12.4,-999,-99.99,,,-99.99,,2013-08-01 06:25:00,
2013-07-31 23:30:00,61.8,-99.9,29.97,ESE,104,0.0,15.8,-999,-99.99,,,-99.99,,2013-08-01 06:30:00,
2013-07-31 23:35:00,61.9,-99.9,29.97,ESE,112,13.5,18.2,-999,-99.99,,,-99.99,,2013-08-01 06:35:00,
2013-07-31 23:40:00,61.7,-99.9,29.97,East,86,14.6,18.5,-999,-99.99,,,-99.99,,2013-08-01 06:40:00,
2013-07-31 23:45:00,61.6,-99.9,29.97,ENE,69,0.0,10.6,-999,-99.99,,,-99.99,,2013-08-01 06:45:00,
2013-07-31 23:50:00,61.5,-99.9,29.97,ESE,104,13.8,19.8,-999,-99.99,,,-99.99,,2013-08-01 06:50:00,
2013-07-31 23:55:00,61.7,-99.9,29.97,SE,136,0.0,8.7,-999,-99.99,,,-99.99,,2013-08-01 06:55:00,